Location: Sternwarte auf dem Internationalen Platz Vogelsang IP
(50.5721°N, 6.4398°E)
Time: 00:25:35
(UTC+01:00)

Transit 2A Rocket - Pass Details

Date: 13 December 2025
Orbit: 581 x 903 km, 66.7° (Epoch: 14 January)

Event Time Altitude Azimuth Distance (km) Brightness Sun altitude
Rises 11:36:41 0° 268° (W) 3,408 8.2 15.4°
Reaches altitude 10° 11:39:36 10° 282° (WNW) 2,515 7.5 15.5°
Maximum altitude 11:44:19 24° 335° (NNW) 1,763 6.5 15.6°
Drops below altitude 10° 11:49:09 10° 28° (NNE) 2,590 7.3 15.7°
Sets 11:52:13 0° 42° (NE) 3,533 8.1 15.8°
